sat.trackr.live / text

‹ back to catalog

STARLINK-37035

NORAD 68180 · 2026-050P

PAYLOAD ACTIVE UNKNOWN

§ Identity

Operator
Country
US
Launch date
2026-03-14
Launch site
AFETR
Launch vehicle
Mass (kg)
RCS (m²)

Purposes: comms

External: N2YO · Heavens-Above · Gunter

§ Orbital elements

Epoch: 2026-09-19T21:08:47.308704Z

Period
93.85 min
Inclination
53.1586°
Eccentricity
0.0001277
Mean motion
15.34406081 rev/d
Perigee alt
461.8 km
Apogee alt
463.6 km
Semi-major
6,840.8 km
B*
4.7106e-4
RAAN
80.5720°
Arg perigee
87.7480°
Mean anomaly
272.3669°
Rev number
3,047

§ Raw data

STARLINK-370351 68180U 26050P   26262.88110311  .00015575  00000+0  47106-3 0  99902 68180  53.1586  80.5720 0001277  87.7480 272.3669 15.34406081 30477

JSON: /api/v1/satellites/68180 · /tle

For live sub-satellite position, see the globe view (requires WebGL).

§ Visibility from observer

Set your observer location to see the next 7 days of passes ≥ 10°. The values pass through the URL so the page stays shareable.

No JS? Fill the form by hand. The geolocation button needs JavaScript.